N2QDK-2 Weather Reports


Display with metric or nautical units.
time (UTC)temp
F
wind
direction
speed
MPH
gust
MPH
rain 1hr
in
rain 24hr
in
rain mn
in
humidity
%
barometer
mb
20180816232840 74 281 2.0 11.0 0.19 0.19 0.19 88 1016.9
20180816225809 82 37 0.0 3.0 0.00 0.00 0.00 79 1015.8
20180816222808 84 59 0.0 0.0 0.00 0.00 0.00 76 1016.3
20180816215853 84 19 0.0 3.0 0.00 0.00 0.00 74 1016.3
20180816212837 83 36 0.0 3.0 0.00 0.00 0.00 76 1016.1
20180816205905 85 40 2.0 9.0 0.00 0.00 0.00 72 1016.0
20180816202835 86 123 0.0 6.0 0.00 0.00 0.00 70 1016.2
20180816195904 86 59 2.0 5.0 0.00 0.00 0.00 70 1016.2
20180816192833 85 15 2.0 5.0 0.00 0.00 0.00 72 1016.7
20180816185902 86 32 0.0 6.0 0.00 0.00 0.00 69 1016.9
20180816182901 86 313 0.0 6.0 0.00 0.00 0.00 67 1017.2
20180816175900 85 78 0.0 2.0 0.00 0.00 0.00 67 1017.3
20180816172859 84 34 0.0 5.0 0.00 0.00 0.00 71 1017.4
20180816165858 83 67 0.0 8.0 0.00 0.00 0.00 72 1017.4
20180816162858 84 244 0.0 5.0 0.00 0.00 0.00 62 1017.6
20180816155857 83 190 3.0 6.0 0.00 0.01 0.00 66 1017.6
20180816152826 82 198 2.0 5.0 0.00 0.01 0.00 69 1017.7
20180816145855 80 105 0.0 0.0 0.00 0.01 0.00 72 1017.9
20180816142854 79 192 0.0 0.0 0.00 0.01 0.00 76 1017.8
20180816135853 77 277 0.0 3.0 0.00 0.01 0.00 78 1017.8
20180816132852 74 273 0.0 5.0 0.00 0.01 0.00 82 1017.8
20180816125821 72 172 0.0 0.0 0.00 0.01 0.00 83 1017.8
20180816122851 71 176 0.0 2.0 0.00 0.01 0.00 85 1017.6
20180816115850 69 188 0.0 2.0 0.00 0.01 0.00 88 1017.5
20180816112849 68 164 0.0 0.0 0.00 0.01 0.00 89 1017.3
20180816105848 68 164 0.0 0.0 0.00 0.01 0.00 90 1017.1
20180816102832 67 164 0.0 0.0 0.00 0.01 0.00 91 1016.8
20180816095846 67 164 0.0 0.0 0.00 0.01 0.00 92 1016.7
20180816092845 67 164 0.0 0.0 0.00 0.01 0.00 91 1016.4
20180816085844 68 164 0.0 0.0 0.00 0.01 0.00 90 1016.3
20180816082829 69 164 0.0 0.0 0.00 0.01 0.00 89 1016.5
20180816075843 70 164 0.0 0.0 0.00 0.01 0.00 88 1016.2
20180816072812 71 164 0.0 2.0 0.00 0.01 0.00 87 1015.9
20180816065841 71 164 0.0 2.0 0.00 0.01 0.00 87 1015.9
20180816062840 72 217 0.0 2.0 0.00 0.01 0.00 86 1015.7
20180816055809 72 161 0.0 3.0 0.00 0.01 0.00 85 1015.6
20180816052808 72 214 0.0 3.0 0.00 0.01 0.00 85 1015.5
20180816045838 73 88 0.0 3.0 0.00 0.01 0.00 83 1015.5
20180816042837 73 231 0.0 3.0 0.00 0.01 0.00 81 1015.2
20180816035906 74 304 2.0 5.0 0.00 0.01 0.00 80 1015.1
20180816032835 75 248 0.0 3.0 0.00 0.01 0.01 79 1015.0
20180816025904 75 151 3.0 6.0 0.00 0.01 0.01 78 1014.9
20180816022903 76 179 0.0 5.0 0.00 0.01 0.01 77 1014.9
20180816015902 77 84 0.0 3.0 0.00 0.01 0.01 76 1014.9
20180816012831 77 73 0.0 5.0 0.00 0.01 0.01 73 1014.9
20180816005900 78 147 0.0 8.0 0.00 0.01 0.01 73 1014.5
20180816002859 79 223 0.0 6.0 0.00 0.01 0.01 73 1014.1
20180815235858 80 84 0.0 5.0 0.00 0.01 0.01 72 1013.8